Weather History for Abilene Dyess, TX

Change the Weather History Date:

Wednesday, October 23, 2013

  Actual Average Record
Temperature  
Mean Temperature 62 °F -  
Max Temperature 80 °F 73 °F 91 °F (2001)
Min Temperature 44 °F 54 °F 34 °F (2008)
Degree Days  
Heating Degree Days 3    
Growing Degree Days 12 (Base 50)    
Moisture  
Dew Point 40 °F    
Average Humidity 51    
Maximum Humidity 84    
Minimum Humidity 19    
Precipitation  
Precipitation 0.00 in - - ()
Sea Level Pressure  
Sea Level Pressure 30.06 in    
Wind  
Wind Speed 5 mph (SSW)    
Max Wind Speed 17 mph    
Max Gust Speed 23 mph    
Visibility 10 miles    
Events      
Averages and records for this station are not official NWS values.
T = Trace of Precipitation, MM = Missing Value Source: NWS Daily Summary

Daily Weather History Graph

Daily Weather History Graph

Search for Another Location

Airport:

Trip Planner

Search our weather history database for the weather conditions in past years. The results will help you decide how hot, cold, wet, or windy it might be!

Date:

Astronomy

Oct. 23, 2013 Rise Set
Actual Time 7:49 AM CDT 6:57 PM CDT
Civil Twilight 7:24 AM CDT 7:22 PM CDT
Nautical Twilight 6:55 AM CDT 7:51 PM CDT
Astronomical Twilight 6:27 AM CDT 8:19 PM CDT
Moon 10:38 PM CDT (10/23) 11:59 AM CDT (10/23)
Length of Visible Light 11h 57m
Length of Day
11h 07m
Waning Gibbous, 79% of the Moon is Illuminated
Oct 23
Waning Gibbous
Oct 26
Last Quarter
Nov 3
New
Nov 9
First Quarter
Nov 17
Full

Hourly Weather History & Observations

Time (CDT) Temp. Dew Point Humidity Pressure Visibility Wind Dir Wind Speed Gust Speed Precip Events Conditions
12:58 AM 52.7 °F 43.5 °F 71% 30.06 in 10.0 mi SSW 4.6 mph - N/A   Clear
1:58 AM 51.4 °F 43.0 °F 73% 30.06 in 10.0 mi SSW 3.5 mph - N/A   Clear
2:58 AM 51.1 °F 42.6 °F 73% 30.06 in 10.0 mi SSW 3.5 mph - N/A   Clear
3:58 AM 52.5 °F 41.7 °F 67% 30.05 in 10.0 mi South 2.3 mph - N/A   Clear
4:58 AM 48.7 °F 40.8 °F 74% 30.05 in 10.0 mi Calm Calm - N/A   Clear
5:58 AM 47.8 °F 41.9 °F 80% 30.06 in 10.0 mi North 6.9 mph - N/A   Clear
6:58 AM 48.2 °F 41.5 °F 78% 30.09 in 10.0 mi NNE 3.5 mph - N/A   Clear
7:58 AM 44.4 °F 39.9 °F 84% 30.12 in 10.0 mi Calm Calm - N/A   Clear
8:58 AM 52.0 °F 43.0 °F 71% 30.12 in 10.0 mi Calm Calm - N/A   Clear
9:58 AM 59.2 °F 45.0 °F 59% 30.13 in 10.0 mi North 1.2 mph - N/A   Clear
10:58 AM 66.0 °F 43.9 °F 45% 30.11 in 10.0 mi WNW 3.5 mph - N/A   Clear
11:58 AM 72.1 °F 42.6 °F 34% 30.09 in 10.0 mi SW 5.8 mph - N/A   Clear
12:58 PM 76.6 °F 42.4 °F 29% 30.06 in 10.0 mi SSW 5.8 mph - N/A   Clear
1:58 PM 79.5 °F 35.4 °F 20% 30.03 in 10.0 mi SSW 12.7 mph 23.0 mph N/A   Clear
2:58 PM 80.2 °F 34.3 °F 19% 30.01 in 10.0 mi SSW 15.0 mph - N/A   Clear
3:58 PM 79.7 °F 37.0 °F 22% 30.00 in 10.0 mi SSW 17.3 mph 20.7 mph N/A   Clear
4:58 PM 79.7 °F 34.9 °F 20% 29.99 in 10.0 mi SSW 12.7 mph - N/A   Clear
5:58 PM 78.6 °F 35.6 °F 21% 29.99 in 10.0 mi SSW 12.7 mph - N/A   Clear
6:58 PM 72.3 °F 37.9 °F 29% 30.01 in 10.0 mi South 8.1 mph - N/A   Clear
7:58 PM 61.9 °F 39.7 °F 44% 30.05 in 10.0 mi South 6.9 mph - N/A   Clear
8:58 PM 62.8 °F 39.0 °F 42% 30.05 in 10.0 mi SSW 8.1 mph - N/A   Clear
9:58 PM 58.8 °F 39.7 °F 49% 30.06 in 10.0 mi SSW 6.9 mph - N/A   Clear
10:58 PM 57.2 °F 40.3 °F 53% 30.05 in 10.0 mi SW 5.8 mph - N/A   Clear
11:58 PM 54.1 °F 40.1 °F 59% 30.06 in 10.0 mi SSW 5.8 mph - N/A   Clear